When you browse on this site, cookies collect data to enhance your experience and personalize the content and advertising you see.
Visit our Privacy Policy to learn more. By continuing to use the site, you agree to this use of cookies and data.
  • In Portugal
  • List of Countries
  • For 7 days
  • Water Temperature
  • Weather Map
  • Weather Widgets
  • user-avatar
    Login

    Hourly Weather Klagenfurt

    Today, 14 November, Thursday

    Time Temperature Precipitation Wind Pressure Humidity
    00:00 0°C° 0 mm 0 mps 683 mmHg 94%
    01:00 +1°C° 0 mm 0 mps 683 mmHg 94%
    02:00 +1°C° 0 mm 0 mps 683 mmHg 94%
    03:00 +1°C° 0 mm 0 mps 683 mmHg 94%
    04:00 +1°C° 0 mm 0 mps 683 mmHg 94%
    05:00 +1°C° 0 mm 0 mps 683 mmHg 95%
    06:00 +1°C° 0 mm 0 mps 683 mmHg 95%
    07:00 +1°C° 0 mm 0 mps 684 mmHg 96%
    08:00 +2°C° 0 mm 0 mps 684 mmHg 93%
    09:00 +3°C° 0 mm 0 mps 684 mmHg 90%
    10:00 +4°C° 0 mm 0 mps 684 mmHg 88%
    11:00 +4°C° 0 mm 0 mps 684 mmHg 86%
    12:00 +5°C° 0 mm 0 mps 684 mmHg 84%
    13:00 +5°C° 0 mm 0 mps 684 mmHg 82%
    14:00 +5°C° 0 mm 0 mps 683 mmHg 85%
    15:00 +4°C° 0 mm 0 mps 683 mmHg 89%
    16:00 +3°C° 0 mm 0 mps 683 mmHg 92%
    17:00 +3°C° 0 mm 0 mps 683 mmHg 93%
    18:00 +2°C° 0 mm 0 mps 683 mmHg 94%
    19:00 +1°C° 0 mm 0 mps 683 mmHg 94%
    20:00 +2°C° 0 mm 0 mps 683 mmHg 94%
    21:00 +2°C° 0 mm 0 mps 683 mmHg 94%
    22:00 +2°C° 0 mm 0 mps 683 mmHg 93%
    23:00 +2°C° 0.1 mm 0 mps 683 mmHg 94%

    Tomorrow, 15 November, Friday

    Time Temperature Precipitation Wind Pressure Humidity
    00:00 +2°C° 0.1 mm 0 mps 683 mmHg 94%
    01:00 +3°C° 0.1 mm 0 mps 682 mmHg 95%
    02:00 +3°C° 0 mm 0 mps 682 mmHg 96%
    03:00 +3°C° 0 mm 0 mps 682 mmHg 96%
    04:00 +3°C° 0 mm 0 mps 682 mmHg 97%
    05:00 +5°C° 0.2 mm 1 mps 682 mmHg 97%
    06:00 +5°C° 0.2 mm 1 mps 682 mmHg 97%
    07:00 +5°C° 0.2 mm 1 mps 682 mmHg 98%
    08:00 +6°C° 0.1 mm 1 mps 682 mmHg 97%
    09:00 +6°C° 0.1 mm 1 mps 682 mmHg 96%
    10:00 +7°C° 0.1 mm 1 mps 682 mmHg 95%
    11:00 +7°C° 0.3 mm 1 mps 681 mmHg 95%
    12:00 +7°C° 0.3 mm 1 mps 681 mmHg 95%
    13:00 +8°C° 0.3 mm 1 mps 681 mmHg 96%
    14:00 +8°C° 0.6 mm 1 mps 681 mmHg 96%
    15:00 +8°C° 0.6 mm 1 mps 681 mmHg 96%
    16:00 +7°C° 0.6 mm 2 mps 681 mmHg 97%
    17:00 +7°C° 1.5 mm 2 mps 681 mmHg 97%
    18:00 +7°C° 1.5 mm 2 mps 681 mmHg 97%
    19:00 +7°C° 1.5 mm 2 mps 681 mmHg 98%
    20:00 +6°C° 4.9 mm 2 mps 681 mmHg 97%
    21:00 +6°C° 4.9 mm 2 mps 681 mmHg 97%
    22:00 +6°C° 4.9 mm 2 mps 682 mmHg 97%
    23:00 +7°C° 5.4 mm 1 mps 682 mmHg 97%

    Day after tomorrow, 16 November, Saturday

    Time Temperature Precipitation Wind Pressure Humidity
    00:00 +6°C° 5.4 mm 1 mps 682 mmHg 97%
    01:00 +6°C° 5.4 mm 1 mps 682 mmHg 98%
    02:00 +6°C° 0.9 mm 1 mps 682 mmHg 97%
    03:00 +6°C° 0.9 mm 1 mps 683 mmHg 97%
    04:00 +6°C° 0.9 mm 1 mps 683 mmHg 97%
    05:00 +6°C° 0.1 mm 1 mps 684 mmHg 97%
    06:00 +6°C° 0.1 mm 1 mps 684 mmHg 96%
    07:00 +5°C° 0.1 mm 1 mps 685 mmHg 96%
    08:00 +6°C° 0 mm 1 mps 686 mmHg 93%
    09:00 +7°C° 0 mm 1 mps 686 mmHg 91%
    10:00 +6°C° 0 mm 0 mps 687 mmHg 88%
    11:00 +7°C° 0 mm 0 mps 687 mmHg 86%
    12:00 +7°C° 0 mm 0 mps 687 mmHg 84%
    13:00 +8°C° 0 mm 0 mps 688 mmHg 82%
    14:00 +7°C° 0 mm 0 mps 688 mmHg 86%
    15:00 +7°C° 0 mm 0 mps 688 mmHg 89%
    16:00 +6°C° 0 mm 0 mps 687 mmHg 93%
    17:00 +7°C° 0.6 mm 1 mps 687 mmHg 93%
    18:00 +6°C° 0.6 mm 1 mps 687 mmHg 94%
    19:00 +6°C° 0.6 mm 1 mps 687 mmHg 95%
    20:00 +6°C° 1.3 mm 1 mps 687 mmHg 95%
    21:00 +6°C° 1.3 mm 1 mps 687 mmHg 96%
    22:00 +6°C° 1.3 mm 1 mps 687 mmHg 97%
    23:00 +6°C° 0.7 mm 1 mps 686 mmHg 96%

    17 November, Sunday

    Time Temperature Precipitation Wind Pressure Humidity
    00:00 +6°C° 0.7 mm 1 mps 686 mmHg 96%
    01:00 +6°C° 0.7 mm 1 mps 685 mmHg 96%
    02:00 +6°C° 0.2 mm 1 mps 685 mmHg 96%
    03:00 +6°C° 0.2 mm 1 mps 684 mmHg 96%
    04:00 +7°C° 0.2 mm 1 mps 684 mmHg 96%
    05:00 +7°C° 0 mm 1 mps 684 mmHg 96%
    06:00 +7°C° 0 mm 1 mps 683 mmHg 96%
    07:00 +7°C° 0 mm 1 mps 683 mmHg 96%
    08:00 +7°C° 0 mm 1 mps 683 mmHg 95%
    09:00 +8°C° 0 mm 1 mps 683 mmHg 95%
    10:00 +8°C° 0 mm 1 mps 682 mmHg 94%
    11:00 +7°C° 0.2 mm 2 mps 682 mmHg 93%
    12:00 +8°C° 0.2 mm 2 mps 682 mmHg 92%
    13:00 +8°C° 0.2 mm 2 mps 681 mmHg 91%
    14:00 +8°C° 3.2 mm 2 mps 681 mmHg 93%
    15:00 +7°C° 3.2 mm 2 mps 681 mmHg 95%
    16:00 +7°C° 3.2 mm 2 mps 681 mmHg 97%
    17:00 +7°C° 1.2 mm 2 mps 681 mmHg 97%
    18:00 +7°C° 1.2 mm 2 mps 681 mmHg 97%
    19:00 +8°C° 1.2 mm 1 mps 681 mmHg 97%
    20:00 +8°C° 1.3 mm 1 mps 681 mmHg 97%
    21:00 +8°C° 1.3 mm 1 mps 682 mmHg 97%
    22:00 +6°C° 1.3 mm 2 mps 682 mmHg 97%
    23:00 +7°C° 0.2 mm 1 mps 682 mmHg 97%

    18 November, Monday

    Time Temperature Precipitation Wind Pressure Humidity
    00:00 +6°C° 0.2 mm 1 mps 682 mmHg 96%
    01:00 +6°C° 0.2 mm 1 mps 682 mmHg 95%
    02:00 +6°C° 0 mm 1 mps 682 mmHg 95%
    03:00 +5°C° 0 mm 1 mps 682 mmHg 94%
    04:00 +5°C° 0 mm 1 mps 681 mmHg 94%
    05:00 +5°C° 0 mm 1 mps 682 mmHg 94%
    06:00 +5°C° 0 mm 1 mps 682 mmHg 94%
    07:00 +4°C° 0 mm 1 mps 682 mmHg 94%
    08:00 +5°C° 0.1 mm 1 mps 682 mmHg 92%
    09:00 +6°C° 0.1 mm 1 mps 683 mmHg 90%
    10:00 +7°C° 0.1 mm 1 mps 683 mmHg 88%
    11:00 +7°C° 0.7 mm 1 mps 683 mmHg 89%
    12:00 +6°C° 0.7 mm 2 mps 684 mmHg 91%
    13:00 +5°C° 0.7 mm 2 mps 684 mmHg 92%
    14:00 +6°C° 0.2 mm 1 mps 684 mmHg 92%
    15:00 +6°C° 0.2 mm 1 mps 684 mmHg 92%
    16:00 +5°C° 0.2 mm 1 mps 684 mmHg 92%
    17:00 +5°C° 0 mm 1 mps 685 mmHg 93%
    18:00 +4°C° 0 mm 1 mps 685 mmHg 94%
    19:00 +3°C° 0 mm 1 mps 685 mmHg 94%
    20:00 +3°C° 0 mm 1 mps 685 mmHg 94%
    21:00 +2°C° 0 mm 0 mps 686 mmHg 93%
    22:00 +2°C° 0 mm 0 mps 686 mmHg 93%
    23:00 +2°C° 0.8 mm 0 mps 686 mmHg 94%

    19 November, Tuesday

    Time Temperature Precipitation Wind Pressure Humidity
    00:00 +2°C° 0.8 mm 0 mps 686 mmHg 95%
    01:00 +2°C° 0.8 mm 0 mps 686 mmHg 96%
    02:00 +2°C° 1.2 mm 0 mps 686 mmHg 97%
    03:00 +2°C° 1.2 mm 0 mps 686 mmHg 97%
    04:00 +3°C° 1.2 mm 1 mps 686 mmHg 97%
    05:00 +3°C° 0.8 mm 1 mps 686 mmHg 97%
    06:00 +3°C° 0.8 mm 1 mps 686 mmHg 97%
    07:00 +3°C° 0.8 mm 0 mps 686 mmHg 97%
    08:00 +3°C° 0.2 mm 0 mps 686 mmHg 97%
    09:00 +3°C° 0.2 mm 0 mps 687 mmHg 97%
    10:00 +4°C° 0.2 mm 0 mps 687 mmHg 97%
    11:00 +4°C° 0.2 mm 0 mps 687 mmHg 96%
    12:00 +4°C° 0.2 mm 0 mps 687 mmHg 96%
    13:00 +4°C° 0.2 mm 0 mps 687 mmHg 96%
    14:00 +4°C° 0.1 mm 0 mps 687 mmHg 96%
    15:00 +4°C° 0.1 mm 0 mps 687 mmHg 96%
    16:00 +4°C° 0.1 mm 0 mps 688 mmHg 97%
    17:00 +4°C° 0 mm 0 mps 688 mmHg 96%
    18:00 +3°C° 0 mm 0 mps 688 mmHg 96%
    19:00 +3°C° 0 mm 0 mps 689 mmHg 96%
    20:00 +3°C° 0 mm 0 mps 689 mmHg 95%
    21:00 +2°C° 0 mm 0 mps 689 mmHg 95%
    22:00 +2°C° 0 mm 0 mps 689 mmHg 94%
    23:00 +2°C° 0 mm 0 mps 689 mmHg 94%
    Show more